Regional Weather Roundup
Issued by NWS

Home | Current Version | Previous Version | Graphics & Text | Print | Product List | Glossary On
Versions: 1 2 3 4 5 6 7 8 9 10 11 12 13 14 15 16 17 18 19 20 21 22 23 24 25 26 27 28 29 30 31 32 33 34 35 36 37 38 39 40 41 42 43 44 45 46 47 48 49 50
000
ASUS43 KOAX 012210
RWRNE

WEATHER ROUNDUP FOR NEBRASKA
NATIONAL WEATHER SERVICE OMAHA NE
400 PM CST SUN FEB 01 2015

NOTES: SATELLITE DATA IS BEING USED TO AUGMENT CLOUD COVER ABOVE
       12000 FEET.
       "FAIR" INDICATES FEW OR NO CLOUDS BELOW 12,000 FEET WITH NO
       SIGNIFICANT WEATHER AND/OR OBSTRUCTIONS TO VISIBILITY.

  * THESE STATIONS DO NOT REPORT WEATHER SUCH AS RAIN...SNOW OR FOG.

NEZ001>004-019>022-054>056-012300-
NEBRASKA PANHANDLE

CITY           SKY/WX    TMP DP  RH WIND       PRES   REMARKS
SCOTTSBLUFF    MOSUNNY   22  11  62 NE6       30.22F WCI  14
ALLIANCE       SUNNY     13   3  64 N13       30.22F WCI  -2
CHADRON        SUNNY     13   7  77 SE3       30.28F
KIMBALL        SUNNY     22  10  58 N21G26    30.14R WCI   6
SIDNEY         MOSUNNY   15   7  70 N17       30.20F WCI  -1
$$

NEZ057>060-069>072-079>082-012300-
SOUTHWEST NEBRASKA

CITY           SKY/WX    TMP DP  RH WIND       PRES   REMARKS
NORTH PLATTE   SUNNY     10   0  63 N21G29    30.29R WCI  -9
IMPERIAL       MOSUNNY   13   3  64 N25       30.26R WCI  -7
LEXINGTON      CLOUDY    11   4  71 N28       30.28R WCI -10
MCCOOK         PTSUNNY   16   5  62 N23       30.28R WCI  -2
OGALLALA       SUNNY     13   5  69 N15       30.28S WCI  -3
$$

NEZ005>010-023>029-035>040-094-012300-
NORTH CENTRAL NEBRASKA

CITY           SKY/WX    TMP DP  RH WIND       PRES   REMARKS
VALENTINE      MOSUNNY    5  -3  69 N13G22    30.32S WCI -12
AINSWORTH      MOSUNNY    4  -3  74 NW20      30.30R WCI -16
BROKEN BOW     MOSUNNY    7  -1  70 N26G33    30.26R BLWGSNOWWCI -15
O`NEILL        PTSUNNY    4  -1  77 NW24G30   30.30R HAZE    WCI -18
ORD            MIX PCPN   6  -2  69 N23G31    30.27R WCI -15
THEDFORD       SUNNY      8   1  72 N17       30.28S WCI -11
$$

NEZ041-046>049-061>064-073>077-083>087-012300-
SOUTH CENTRAL NEBRASKA

CITY           SKY/WX    TMP DP  RH WIND       PRES   REMARKS
GRAND ISLAND   LGT SNOW   7   1  76 N22G35    30.25R WCI -14
AURORA         CLOUDY     8   4  84 N30G36    30.24R WCI -15
HASTINGS       SNOW       8   4  83 N28G35    30.23R VSB 1/2 WCI -14
HEBRON         LGT SNOW  10   6  81 NW12G22   30.22R VSB 1   WCI  -4
HOLDREGE       CLOUDY    10   4  75 N24       30.25R WCI -10
KEARNEY *      CLOUDY     9   1  72 N24G31    30.24R WCI -12
YORK           LGT SNOW   7   3  85 N21G28    30.22R WCI -13
$$

NEZ011>018-030>034-042>045-012300-
NORTHEAST NEBRASKA

CITY           SKY/WX    TMP DP  RH WIND       PRES   REMARKS
NORFOLK        LGT SNOW   6   0  76 N23G32    30.24R WCI -15
ALBION         MOSUNNY    6  -1  72 N21G33    30.25R HAZE    WCI -15
BLAIR          LGT SNOW  13   8  79 NW21G30   30.14R WCI  -5
FREMONT        CLOUDY    11   7  84 NW18G28   30.21R WCI  -7
TEKAMAH        BLWGSNOW  13   7  77 N30G39    30.21R VSB 1   WCI  -8
WAYNE          LGT SNOW   6   0  78 N23G31    30.26R WCI -16
$$

NEZ050>053-065>068-078-088>093-012300-
SOUTHEAST NEBRASKA

CITY           SKY/WX    TMP DP  RH WIND       PRES   REMARKS
LINCOLN        LGT SNOW  10   4  76 N23G38    30.20R WCI -10
OMAHA EPPLEY   CLOUDY    14   9  80 N31G43    30.15R BLWGSNOWWCI  -7
BEATRICE       CLOUDY    10   5  81 N18G25    30.18R FOG     WCI  -9
FALLS CITY     LGT SNOW  16  11  80 NW23G32   30.07R VSB 1   WCI  -2
NEBRASKA CITY  LGT SNOW  14   9  81 N22G31    30.11R WCI  -4
PLATTSMOUTH    LGT SNOW  13   8  79 NW21G29   30.11R WCI  -5
$$

NEZ044-045-051>053-067-012300-
OMAHA AREA

CITY           SKY/WX    TMP DP  RH WIND       PRES   REMARKS
OMAHA EPPLEY   CLOUDY    14   9  80 N31G43    30.15R BLWGSNOWWCI  -7
BLAIR          LGT SNOW  13   8  79 NW21G30   30.14R WCI  -5
FREMONT        CLOUDY    11   7  84 NW18G28   30.21R WCI  -7
MILLARD        LGT SNOW  13   8  77 NW8       30.17R WCI   2
OFFUTT AFB     LGT SNOW  14   8  78 NW21G26   30.14R WCI  -4
PLATTSMOUTH    LGT SNOW  13   8  79 NW21G29   30.11R WCI  -5
WAHOO          LGT SNOW   9   4  79 NW31      30.19R VSB 3/4 WCI -14
$$



USA.gov is the U.S. government's official web portal to all federal, state and local government web resources and services.